User: anonymous   Login
Location: Cabeza de los Veneras
(40.2000°N, 5.2000°W)
Time: 18:26:41
(UTC+00:00)
Language:

SPOT 5 - Orbit

View from above orbital plane
View from above orbital plane
View from above satellite
View from above satellite

Ground track
Ground track

The orbit data is extracted from the following two-line orbital elements,

1 27421U 02021A   24166.71687949  .00000765  00000-0  17442-3 0  9990
2 27421  98.0882 223.1924 0133100  30.5934 330.2940 14.53316182156397
Epoch (UTC): 14 June 2024 17:12:18
Eccentricity: 0.0133100
inclination: 98.0882°
perigee height: 620 km
apogee height: 809 km
right ascension of ascending node: 223.1924°
argument of perigee: 30.5934°
revolutions per day: 14.53316182
mean anomaly at epoch: 330.2940°
orbit number at epoch: 15639

The dashed part of the orbit path shows where the satellite is in the earth's shadow,  

DLR